FW6209 Weather Reports


Display with metric or nautical units.
time (UTC)temp
F
wind
direction
speed
MPH
gust
MPH
rain 1hr
in
rain 24hr
in
rain mn
in
humidity
%
barometer
mb
20260831210505 83 245 6.0 14.0 0.00 0.00 0.00 51 1013.1
20260831210002 83 236 6.0 14.0 0.00 0.00 0.00 51 1013.2
20260831205241 84 232 5.0 13.0 0.00 0.00 0.00 51 1013.2
20260831204740 85 234 4.0 13.0 0.00 0.00 0.00 51 1013.2
20260831204239 85 245 3.0 12.0 0.00 0.00 0.00 51 1013.3
20260831203737 85 205 3.0 12.0 0.00 0.00 0.00 51 1013.3
20260831203237 85 229 3.0 14.0 0.00 0.00 0.00 51 1013.3
20260831203001 85 241 2.0 14.0 0.00 0.00 0.00 51 1013.2
20260831202239 85 198 1.0 7.0 0.00 0.00 0.00 51 1013.3
20260831202006 85 263 1.0 10.0 0.00 0.00 0.00 51 1013.4
20260831201239 85 209 1.0 10.0 0.00 0.00 0.00 52 1013.6
20260831200737 85 179 2.0 10.0 0.00 0.00 0.00 52 1013.4
20260831200502 85 169 1.0 10.0 0.00 0.00 0.00 51 1013.6
20260831195739 85 167 2.0 12.0 0.00 0.00 0.00 51 1013.6
20260831195237 85 112 2.0 12.0 0.00 0.00 0.00 52 1013.3
20260831194733 86 233 1.0 10.0 0.00 0.00 0.00 53 1013.4
20260831194233 86 154 1.0 10.0 0.00 0.00 0.00 53 1013.4
20260831193958 86 197 1.0 9.0 0.00 0.00 0.00 52 1013.7
20260831193448 86 220 1.0 9.0 0.00 0.00 0.00 52 1013.7
20260831192959 86 234 1.0 8.0 0.00 0.00 0.00 52 1013.7
20260831192458 85 229 2.0 10.0 0.00 0.00 0.00 51 1013.4
20260831191721 85 213 2.0 10.0 0.00 0.00 0.00 52 1013.8
20260831191215 86 264 0.0 6.0 0.00 0.00 0.00 50 1013.8
20260831190932 86 193 0.0 8.0 0.00 0.00 0.00 50 1013.6
20260831190203 85 212 0.0 8.0 0.00 0.00 0.00 49 1013.7
20260831185659 85 182 1.0 8.0 0.00 0.00 0.00 49 1013.7
20260831185151 85 230 1.0 8.0 0.00 0.00 0.00 50 1013.4
20260831184645 85 245 0.0 5.0 0.00 0.00 0.00 48 1013.6
20260831184139 85 186 0.0 5.0 0.00 0.00 0.00 49 1013.7
20260831183634 85 234 0.0 5.0 0.00 0.00 0.00 46 1013.8
20260831183131 85 190 0.0 4.0 0.00 0.00 0.00 47 1013.8
20260831182621 84 139 0.0 4.0 0.00 0.00 0.00 47 1013.7
20260831182116 84 107 0.0 4.0 0.00 0.00 0.00 47 1013.6
20260831181609 84 286 0.0 2.0 0.00 0.00 0.00 47 1013.7
20260831181103 84 238 0.0 2.0 0.00 0.00 0.00 48 1013.7
20260831180557 83 162 0.0 2.0 0.00 0.00 0.00 50 1013.7
20260831180051 83 201 0.0 2.0 0.00 0.00 0.00 50 1013.7
20260831175545 83 245 0.0 2.0 0.00 0.00 0.00 52 1013.9
20260831175039 82 253 0.0 2.0 0.00 0.00 0.00 52 1013.8
20260831174535 82 134 0.0 0.0 0.00 0.00 0.00 53 1013.8
20260831174257 81 246 0.0 5.0 0.00 0.00 0.00 54 1013.7
20260831173521 81 44 0.0 5.0 0.00 0.00 0.00 54 1013.7
20260831173015 80 150 0.0 5.0 0.00 0.00 0.00 54 1013.8
20260831172510 80 180 0.0 5.0 0.00 0.00 0.00 54 1013.6
20260831172004 80 206 0.0 5.0 0.00 0.00 0.00 56 1013.7
20260831171456 80 165 0.0 5.0 0.00 0.00 0.00 54 1013.7
20260831170951 79 5 0.0 2.0 0.00 0.00 0.00 58 1013.7
20260831170445 79 216 0.0 1.0 0.00 0.00 0.00 60 1013.7
20260831165939 79 274 0.0 1.0 0.00 0.00 0.00 61 1013.7
20260831165434 78 241 0.0 0.0 0.00 0.00 0.00 61 1013.7
20260831165149 78 112 0.0 0.0 0.00 0.00 0.00 64 1013.6
20260831164421 77 165 0.0 0.0 0.00 0.00 0.00 65 1013.3
20260831163915 77 58 0.0 0.0 0.00 0.00 0.00 67 1013.3
20260831163408 76 111 0.0 0.0 0.00 0.00 0.00 69 1013.2
20260831162903 76 227 0.0 0.0 0.00 0.00 0.00 70 1013.3
20260831162357 76 59 0.0 0.0 0.00 0.00 0.00 70 1013.2
20260831161852 75 120 0.0 0.0 0.00 0.00 0.00 71 1013.1
20260831161345 74 234 0.0 0.0 0.00 0.00 0.00 72 1013.3
20260831160839 74 146 0.0 0.0 0.00 0.00 0.00 72 1013.2
20260831160557 74 112 0.0 0.0 0.00 0.00 0.00 75 1013.3
20260831155826 73 162 0.0 0.0 0.00 0.00 0.00 75 1013.2
20260831155321 72 233 0.0 0.0 0.00 0.00 0.00 78 1013.2
20260831154815 72 182 0.0 0.0 0.00 0.00 0.00 78 1013.2
20260831154309 71 88 0.0 0.0 0.00 0.00 0.00 81 1013.2
20260831153804 71 237 0.0 0.0 0.00 0.00 0.00 83 1013.2
20260831153258 70 165 0.0 0.0 0.00 0.00 0.00 84 1013.3
20260831152752 69 167 0.0 0.0 0.00 0.00 0.00 86 1013.3
20260831152246 69 163 0.0 0.0 0.00 0.00 0.00 87 1013.2
20260831151740 68 194 0.0 0.0 0.00 0.00 0.00 89 1013.2
20260831151233 67 119 0.0 0.0 0.00 0.00 0.00 91 1013.2
20260831150728 67 178 0.0 0.0 0.00 0.00 0.00 92 1013.2
20260831150445 67 76 0.0 0.0 0.00 0.00 0.00 92 1013.1
20260831150154 66 76 0.0 0.0 0.00 0.00 0.00 93 1013.1
20260831145209 66 185 0.0 0.0 0.00 0.00 0.00 94 1013.1
20260831144704 66 218 0.0 0.0 0.00 0.00 0.00 94 1013.0
20260831144419 66 243 0.0 0.0 0.00 0.00 0.00 94 1013.0
20260831143651 65 243 0.0 0.0 0.00 0.00 0.00 94 1012.9
20260831143412 65 212 0.0 0.0 0.00 0.00 0.00 95 1012.8
20260831142640 65 219 0.0 0.0 0.00 0.00 0.00 95 1012.8
20260831142438 65 74 0.0 0.0 0.00 0.00 0.00 95 1012.7
20260831142428 65 74 0.0 0.0 0.00 0.00 0.00 95 1012.4
20260831142345 65 74 0.0 0.0 0.00 0.00 0.00 95 1012.7
20260831142227 65 74 0.0 0.0 0.00 0.00 0.00 95 1012.8
20260831141849 65 74 0.0 0.0 0.00 0.00 0.00 95 1012.6
20260831140109 65 74 0.0 0.0 0.00 0.00 0.00 95 1012.4
20260831140055 65 74 0.0 0.0 0.00 0.00 0.00 95 1012.4
20260831135057 65 74 0.0 0.0 0.00 0.00 0.00 95 1012.4
20260831134552 65 74 0.0 0.0 0.00 0.00 0.00 95 1012.3
20260831134046 65 74 0.0 0.0 0.00 0.00 0.00 95 1012.1
20260831133539 65 74 0.0 0.0 0.00 0.00 0.00 95 1012.1
20260831133034 65 74 0.0 0.0 0.00 0.00 0.00 95 1012.0
20260831132527 65 74 0.0 0.0 0.00 0.00 0.00 95 1012.0
20260831132021 65 74 0.0 0.0 0.00 0.00 0.00 95 1011.9
20260831131517 65 74 0.0 0.0 0.00 0.00 0.00 95 1012.0
20260831131009 65 81 0.0 0.0 0.00 0.00 0.00 95 1011.9
20260831130727 65 71 0.0 0.0 0.00 0.00 0.00 95 1011.9
20260831125958 65 71 0.0 0.0 0.00 0.00 0.00 95 1012.0
20260831125719 65 71 0.0 0.0 0.00 0.00 0.00 95 1012.1
20260831124945 65 81 0.0 0.0 0.00 0.00 0.00 95 1012.0
20260831124924 65 80 0.0 0.0 0.00 0.00 0.00 95 1012.0
20260831123934 65 70 0.0 0.0 0.00 0.00 0.00 95 1012.0
20260831123427 65 80 0.0 0.0 0.00 0.00 0.00 95 1012.0
20260831122922 65 74 0.0 0.0 0.00 0.00 0.00 95 1012.0
20260831122415 65 77 0.0 0.0 0.00 0.00 0.00 95 1011.9
20260831121909 65 58 0.0 0.0 0.00 0.00 0.00 95 1012.1
20260831121404 65 62 0.0 0.0 0.00 0.00 0.00 95 1012.1
20260831120857 65 62 0.0 0.0 0.00 0.00 0.00 95 1012.0
20260831120831 65 72 0.0 0.0 0.00 0.00 0.00 95 1012.0
20260831115845 65 74 0.0 0.0 0.00 0.00 0.00 95 1012.1
20260831115339 66 76 0.0 0.0 0.00 0.00 0.00 95 1012.0
20260831114833 66 76 0.0 0.0 0.00 0.00 0.00 95 1011.9
20260831114329 66 76 0.0 0.0 0.00 0.00 0.00 95 1012.0
20260831113822 65 76 0.0 0.0 0.00 0.00 0.00 95 1012.0
20260831113314 65 76 0.0 0.0 0.00 0.00 0.00 95 1011.9
20260831112809 66 76 0.0 0.0 0.00 0.00 0.00 95 1012.0
20260831112306 66 76 0.0 0.0 0.00 0.00 0.00 95 1012.0
20260831111757 66 74 0.0 0.0 0.00 0.00 0.00 95 1012.0
20260831111510 66 57 0.0 0.0 0.00 0.00 0.00 95 1012.0
20260831110745 66 45 0.0 0.0 0.00 0.00 0.00 95 1012.1
20260831110239 66 94 0.0 0.0 0.00 0.00 0.00 95 1012.1
20260831105733 66 111 0.0 0.0 0.00 0.00 0.00 95 1012.1
20260831105227 66 107 0.0 0.0 0.00 0.00 0.00 95 1012.1
20260831104722 66 110 0.0 0.0 0.00 0.00 0.00 95 1012.2
20260831104215 66 110 0.0 0.0 0.00 0.00 0.00 95 1012.1
20260831103709 66 109 0.0 0.0 0.00 0.00 0.00 95 1012.1
20260831103203 66 111 0.0 0.0 0.00 0.00 0.00 95 1012.2
20260831102657 66 167 0.0 0.0 0.00 0.00 0.00 95 1012.2
20260831102150 66 109 0.0 0.0 0.00 0.00 0.00 95 1012.3
20260831101645 66 109 0.0 0.0 0.00 0.00 0.00 95 1012.2
20260831101140 66 109 0.0 0.0 0.00 0.00 0.00 95 1012.2
20260831100633 66 212 0.0 0.0 0.00 0.00 0.00 95 1012.1
20260831100127 66 182 0.0 0.0 0.00 0.00 0.00 95 1012.1
20260831100116 66 120 0.0 0.0 0.00 0.00 0.00 95 1012.1
20260831095115 66 250 0.0 0.0 0.00 0.00 0.00 95 1012.3
20260831094609 66 165 0.0 0.0 0.00 0.00 0.00 95 1012.0
20260831094333 66 191 0.0 0.0 0.00 0.00 0.00 95 1012.1
20260831093559 66 194 0.0 0.0 0.00 0.00 0.00 95 1012.1
20260831093051 66 153 0.0 0.0 0.00 0.00 0.00 95 1012.2
20260831093034 66 165 0.0 0.0 0.00 0.00 0.00 95 1012.2
20260831092039 66 111 0.0 0.0 0.00 0.00 0.00 95 1012.2
20260831091533 66 182 0.0 0.0 0.00 0.00 0.00 95 1012.1
20260831091027 66 182 0.0 0.0 0.00 0.00 0.00 94 1012.2
20260831091003 66 162 0.0 0.0 0.00 0.00 0.00 94 1012.0
20260831090017 66 176 0.0 0.0 0.00 0.00 0.00 94 1012.1
20260831085509 66 182 0.0 0.0 0.00 0.00 0.00 94 1012.1
20260831085221 66 182 0.0 0.0 0.00 0.00 0.00 94 1012.2
20260831084457 66 182 0.0 0.0 0.00 0.00 0.00 94 1012.2
20260831083952 66 242 0.0 0.0 0.00 0.00 0.00 94 1012.2
20260831083445 66 242 0.0 0.0 0.00 0.00 0.00 94 1012.2
20260831083206 66 209 0.0 0.0 0.00 0.00 0.00 94 1012.2
20260831082443 66 227 0.0 0.0 0.00 0.00 0.00 94 1012.2
20260831081944 66 186 0.0 0.0 0.00 0.00 0.00 94 1012.2
20260831081443 66 225 0.0 0.0 0.00 0.00 0.00 94 1012.1
20260831080944 66 212 0.0 0.0 0.00 0.00 0.00 94 1012.2
20260831080443 66 207 0.0 0.0 0.00 0.00 0.00 93 1012.2
20260831075943 66 184 0.0 0.0 0.00 0.00 0.00 93 1012.4
20260831075439 66 168 0.0 0.0 0.00 0.00 0.00 93 1012.4
20260831074938 66 152 0.0 0.0 0.00 0.00 0.00 93 1012.3
20260831074437 66 161 0.0 0.0 0.00 0.00 0.00 93 1012.3
20260831073935 66 201 0.0 1.0 0.00 0.00 0.00 93 1012.3
20260831073435 66 171 0.0 1.0 0.00 0.00 0.00 93 1012.3
20260831072931 66 170 0.0 1.0 0.00 0.00 0.00 93 1012.3
20260831072431 66 170 0.0 1.0 0.00 0.00 0.00 93 1012.2
20260831071930 66 191 0.0 0.0 0.00 0.00 0.00 93 1012.3
20260831071429 66 171 0.0 0.0 0.00 0.00 0.00 93 1012.3
20260831070930 66 171 0.0 0.0 0.00 0.00 0.00 93 1012.4
20260831070427 66 167 0.0 0.0 0.00 0.00 0.00 92 1012.4
20260831065927 66 175 0.0 0.0 0.00 0.00 0.00 91 1012.4
20260831065422 66 165 0.0 0.0 0.00 0.00 0.00 91 1012.4
20260831064922 66 171 0.0 0.0 0.00 0.00 0.00 91 1012.3
20260831064423 66 170 0.0 0.0 0.00 0.00 0.00 91 1012.2
20260831063922 66 171 0.0 0.0 0.00 0.00 0.00 91 1012.2
20260831063423 66 141 0.0 0.0 0.00 0.00 0.00 91 1012.2
20260831062922 66 92 0.0 0.0 0.00 0.00 0.00 91 1012.3
20260831062422 66 92 0.0 0.0 0.00 0.00 0.00 91 1012.2
20260831062145 66 92 0.0 0.0 0.00 0.00 0.00 91 1012.2
20260831061423 67 92 0.0 0.0 0.00 0.00 0.00 91 1012.2
20260831061143 67 92 0.0 0.0 0.00 0.00 0.00 91 1012.2
20260831060418 67 92 0.0 0.0 0.00 0.00 0.00 91 1012.1
20260831055919 67 92 0.0 0.0 0.00 0.00 0.00 91 1012.1
20260831055417 67 92 0.0 0.0 0.00 0.00 0.00 91 1012.1
20260831054919 67 35 0.0 0.0 0.00 0.00 0.00 91 1012.1
20260831054418 67 35 0.0 0.0 0.00 0.00 0.00 91 1012.3
20260831053919 67 35 0.0 0.0 0.00 0.00 0.00 91 1012.3
20260831053419 67 35 0.0 0.0 0.00 0.00 0.00 90 1012.2
20260831052919 67 35 0.0 0.0 0.00 0.00 0.00 90 1012.2
20260831052417 67 35 0.0 0.0 0.00 0.00 0.00 90 1012.2
20260831051921 67 35 0.0 0.0 0.00 0.00 0.00 90 1012.2
20260831051418 67 35 0.0 0.0 0.00 0.00 0.00 89 1012.3
20260831050920 67 35 0.0 0.0 0.00 0.00 0.00 89 1012.4
20260831050418 67 35 0.0 0.0 0.00 0.00 0.00 88 1012.3
20260831045918 68 35 0.0 0.0 0.00 0.00 0.00 88 1012.3
20260831045419 68 35 0.0 0.0 0.00 0.00 0.00 88 1012.3
20260831044918 68 35 0.0 0.0 0.00 0.00 0.00 87 1012.3
20260831044418 68 35 0.0 0.0 0.00 0.00 0.00 87 1012.1
20260831043919 69 35 0.0 0.0 0.00 0.00 0.00 86 1012.0
20260831043419 69 35 0.0 0.0 0.00 0.00 0.00 86 1012.1
20260831042918 69 303 0.0 0.0 0.00 0.00 0.00 85 1012.1
20260831042419 69 303 0.0 0.0 0.00 0.00 0.00 84 1012.1
20260831041919 69 303 0.0 0.0 0.00 0.00 0.00 83 1012.2
20260831041853 70 303 0.0 0.0 0.00 0.00 0.00 82 1012.0
20260831041742 70 303 0.0 0.0 0.00 0.00 0.00 82 1012.0
20260831040646 70 303 0.0 0.0 0.00 0.00 0.00 81 1011.9
20260831035915 71 184 0.0 0.0 0.00 0.00 0.00 81 1011.9
20260831035413 71 184 0.0 0.0 0.00 0.00 0.00 81 1011.8
20260831034915 71 184 0.0 0.0 0.00 0.00 0.00 81 1011.8
20260831034414 71 184 0.0 0.0 0.00 0.00 0.00 81 1011.7
20260831033916 71 184 0.0 0.0 0.00 0.00 0.00 80 1011.7
20260831033418 71 184 0.0 0.0 0.00 0.00 0.00 80 1011.5
20260831032919 71 156 0.0 0.0 0.00 0.00 0.00 80 1011.4
20260831032643 71 183 0.0 0.0 0.00 0.00 0.00 80 1011.4
20260831031919 71 175 0.0 0.0 0.00 0.00 0.00 79 1011.4
20260831031415 71 184 0.0 0.0 0.00 0.00 0.00 79 1011.1
20260831030913 72 175 0.0 0.0 0.00 0.00 0.00 79 1011.0
20260831030413 72 190 0.0 0.0 0.00 0.00 0.00 78 1011.1
20260831025910 72 166 0.0 0.0 0.00 0.00 0.00 77 1011.3
20260831025636 73 175 0.0 0.0 0.00 0.00 0.00 76 1011.1
20260831025131 73 167 0.0 0.0 0.00 0.00 0.00 75 1011.0
20260831024421 74 211 0.0 0.0 0.00 0.00 0.00 74 1010.9
20260831023912 74 176 0.0 0.0 0.00 0.00 0.00 73 1010.9
20260831023412 75 223 0.0 0.0 0.00 0.00 0.00 72 1010.8
20260831023131 75 207 0.0 0.0 0.00 0.00 0.00 70 1010.9
20260831022625 76 221 0.0 0.0 0.00 0.00 0.00 69 1010.7
20260831021907 76 178 0.0 0.0 0.00 0.00 0.00 67 1010.9
20260831021408 77 209 0.0 0.0 0.00 0.00 0.00 66 1010.9
20260831021403 77 165 0.0 0.0 0.00 0.00 0.00 65 1010.8
20260831020632 78 167 0.0 0.0 0.00 0.00 0.00 63 1010.8
20260831015905 79 185 0.0 0.0 0.00 0.00 0.00 62 1010.8
20260831015405 80 207 0.0 0.0 0.00 0.00 0.00 61 1010.8
20260831014907 80 175 0.0 0.0 0.00 0.00 0.00 59 1010.7
20260831014404 80 223 0.0 0.0 0.00 0.00 0.00 59 1010.7
20260831013901 81 207 0.0 0.0 0.00 0.00 0.00 59 1010.6
20260831013403 81 211 0.0 0.0 0.00 0.00 0.00 59 1010.7
20260831012903 81 226 0.0 0.0 0.00 0.00 0.00 59 1010.7
20260831012402 81 224 0.0 0.0 0.00 0.00 0.00 60 1010.8
20260831011904 81 207 0.0 0.0 0.00 0.00 0.00 59 1010.7
20260831011402 81 165 0.0 0.0 0.00 0.00 0.00 58 1010.8
20260831010903 81 169 0.0 6.0 0.00 0.00 0.00 57 1010.9
20260831010403 82 184 0.0 6.0 0.00 0.00 0.00 58 1011.0
20260831005857 82 221 0.0 6.0 0.00 0.00 0.00 57 1010.9
20260831005358 82 179 0.0 6.0 0.00 0.00 0.00 56 1011.0
20260831005344 82 178 0.0 3.0 0.00 0.00 0.00 56 1011.0
20260831004359 82 211 0.0 2.0 0.00 0.00 0.00 55 1010.9
20260831003857 83 149 0.0 5.0 0.00 0.00 0.00 54 1010.9
20260831003357 84 165 0.0 5.0 0.00 0.00 0.00 52 1010.9
20260831002857 84 190 0.0 5.0 0.00 0.00 0.00 51 1010.9
20260831002848 85 201 0.0 5.0 0.00 0.00 0.00 51 1010.9
20260831001859 85 202 0.0 7.0 0.00 0.00 0.00 50 1011.0
20260831001353 85 147 0.0 7.0 0.00 0.00 0.00 49 1011.0
20260831000855 85 213 0.0 5.0 0.00 0.00 0.00 49 1010.9
20260831000355 85 202 0.0 8.0 0.00 0.00 0.00 49 1010.9
20260830235855 85 181 1.0 8.0 0.00 0.00 0.00 49 1010.9
20260830235354 85 259 1.0 9.0 0.00 0.00 0.00 50 1010.9
20260830235117 85 199 0.0 9.0 0.00 0.00 0.00 47 1010.9
20260830234355 85 223 0.0 5.0 0.00 0.00 0.00 47 1011.0
20260830233855 86 173 0.0 5.0 0.00 0.00 0.00 46 1010.9
20260830233621 86 226 0.0 7.0 0.00 0.00 0.00 46 1010.9
20260830232854 87 200 0.0 7.0 0.00 0.00 0.00 47 1010.8
20260830232353 87 158 1.0 7.0 0.00 0.00 0.00 47 1010.9
20260830232111 87 209 1.0 7.0 0.00 0.00 0.00 47 1011.0
20260830231355 87 261 1.0 6.0 0.00 0.00 0.00 47 1010.9
20260830230854 87 194 1.0 6.0 0.00 0.00 0.00 47 1011.1
20260830230352 88 248 1.0 6.0 0.00 0.00 0.00 46 1011.0
20260830225853 87 151 1.0 10.0 0.00 0.00 0.00 46 1011.0
20260830225357 88 242 3.0 10.0 0.00 0.00 0.00 46 1011.0
20260830225351 87 223 2.0 10.0 0.00 0.00 0.00 46 1010.9
20260830224351 88 223 2.0 10.0 0.00 0.00 0.00 44 1011.0
20260830223847 88 197 2.0 9.0 0.00 0.00 0.00 44 1011.0
20260830223346 89 260 1.0 9.0 0.00 0.00 0.00 44 1010.9
20260830222840 88 223 1.0 9.0 0.00 0.00 0.00 45 1011.1
20260830222335 88 183 1.0 9.0 0.00 0.00 0.00 45 1011.1
20260830221831 88 248 2.0 9.0 0.00 0.00 0.00 45 1011.1
20260830221325 88 5 1.0 7.0 0.00 0.00 0.00 46 1011.4
20260830220819 88 221 0.0 55.0 0.00 0.00 0.00 46 1011.5
20260830220313 88 199 1.0 55.0 0.00 0.00 0.00 47 1011.4
20260830215807 88 149 2.0 9.0 0.00 0.00 0.00 47 1011.5
20260830215332 88 209 1.0 9.0 0.00 0.00 0.00 47 1011.5
20260830214755 88 167 1.0 9.0 0.00 0.00 0.00 48 1011.5
20260830214250 88 258 2.0 10.0 0.00 0.00 0.00 48 1011.7
20260830213743 88 254 1.0 10.0 0.00 0.00 0.00 48 1011.7
20260830213237 89 225 1.0 9.0 0.00 0.00 0.00 48 1011.8
20260830212731 88 225 2.0 9.0 0.00 0.00 0.00 49 1011.8
20260830212225 88 277 1.0 10.0 0.00 0.00 0.00 49 1011.9
20260830211719 89 200 1.0 10.0 0.00 0.00 0.00 50 1012.0
20260830211432 88 197 1.0 9.0 0.00 0.00 0.00 50 1012.0
20260830211151 89 203 1.0 9.0 0.00 0.00 0.00 51 1012.1